Regional Weather Roundup
Issued by NWS Bismarck, ND

Home | Current Version | Previous Version | Text Only | Print | Product List | Glossary On
Versions: 1 2 3 4 5 6 7 8 9 10 11 12 13 14 15 16 17 18 19 20 21 22 23 24 25 26 27 28 29 30 31 32 33 34 35 36 37 38 39 40 41 42 43 44 45 46 47 48 49 50
000
ASUS43 KBIS 192120
RWRBIS

NWR BROADCAST TEXT
NATIONAL WEATHER SERVICE BISMARCK ND
400 PM CDT FRI SEP 19 2014

NOTE: "FAIR" INDICATES FEW OR NO CLOUDS BELOW 12,000 FEET WITH NO
SIGNIFICANT WEATHER AND/OR OBSTRUCTIONS TO VISIBILITY.


CITY           SKY/WX    TMP DP  RH WIND       PRES   REMARKS
WILLISTON      MOSUNNY   77  49  37 NW22G33   29.71R
MINOT          SUNNY     79  50  36 W23G35    29.59R
MINOT AFB      SUNNY     81  48  32 W24       29.55R
BISMARCK       MOSUNNY   87  49  26 W23G31    29.64F
DICKINSON      PTSUNNY   78  48  34 W22G37    29.72S
GARRISON         N/A     82  49  31 W22G36    29.61R
HETTINGER ARPT SUNNY     80  48  32 W22G32    29.77S
JAMESTOWN      SUNNY     82  53  36 W16G23    29.58S
BEACH            N/A     73  46  38 W16G25    29.78S
CARRINGTON     FAIR      84  50  30 W18G30    29.58S
CROSBY         FAIR      63  63 100 NW9       29.71S
HARVEY         FAIR      84  46  26 W24G33    29.56S
HAZEN          FAIR      81  46  30 W22G35    29.65R
LINTON         FAIR      84  50  30 NW17G26   29.66S
MANDAN         FAIR      81  48  32 W26G32    29.66S
OAKES            N/A     82  70  65 S10G17    29.60S
RUGBY          FAIR      81  54  39 NW21G28   29.54R
STANLEY        FAIR      75  54  46 NW17G28   29.66R
TIOGA          FAIR      73  50  43 NW25G31   29.72R
WATFORD CITY   FAIR      77  48  36 NW20G33   29.69R
$$

CITY           SKY/WX    TMP DP  RH WIND       PRES   REMARKS
GRAND FORKS    MOSUNNY   82  62  50 W13       29.49F
GRAND FORKS AF MOSUNNY   83  62  48 W10       29.50F
DEVILS LAKE    SUNNY     82  52  34 W18G25    29.52S
FARGO          SUNNY     78  64  61 S16G24    29.55F
CANDO          FAIR      81  50  34 NW20G26   29.53S
CAVALIER       FAIR      81  63  54 S6        29.48S
GRAFTON        FAIR      79  59  50 SW12G17   29.48F
GWINNER        CLEAR     81  66  61 SW16      29.61S
LANGDON        FAIR      82  54  36 W17G26    29.51R
ROLLA          FAIR      75  54  46 W16G22    29.56R
WALHALLA       FAIR      81  61  50 S6        29.48S
$$

CITY           SKY/WX    TMP DP  RH WIND       PRES   REMARKS
ABERDEEN       MOSUNNY   83  65  54 W12       29.64S
MOBRIDGE       SUNNY     85  56  37 NW10      29.66S
BUFFALO          N/A     80  45  28 W25G36    29.76R
RAPID CITY     PTSUNNY   81  49  32 N14       29.83R
GLASGOW        SUNNY     76  48  37 W17       29.76R
SIDNEY         MOSUNNY   79  52  38 NW14G23   29.74R
WOLF POINT     MOSUNNY   78  51  38 W14G22    29.74R
GLENDIVE       MOSUNNY   75  48  38 W23G29    29.79R
MILES CITY     PTSUNNY   77  46  33 NW22G29   29.83S
BAKER          MOSUNNY   74  46  36 W20G29    29.81R
$$

CITY           SKY/WX    TMP DP  RH WIND       PRES   REMARKS
BILLINGS       MOSUNNY   78  42  27 NW15G26   29.91R
GREAT FALLS    PTSUNNY   75  42  30 SW28      29.91S
REGINA         PTSUNNY   66  52  59 NW18      29.70
ESTEVAN        LGT RAIN  63  57  82 W10       29.69R
$$




USA.gov is the U.S. government's official web portal to all federal, state and local government web resources and services.